Time,TemperatureF,DewpointF,PressureIn,WindDirection,WindDirectionDegrees,WindSpeedMPH,WindSpeedGustMPH,Humidity,HourlyPrecipIn,Conditions,Clouds,dailyrainin,SoftwareType,DateUTC
2013-07-26 00:11:00,83.7,66.0,29.88,SSE,156,4.0,7.0,55,0.00,,,0.00,weatherlink.com 1.10,2013-07-26 05:11:00,
2013-07-26 00:26:00,84.0,66.0,29.88,SSE,165,4.0,7.0,55,0.00,,,0.00,weatherlink.com 1.10,2013-07-26 05:26:00,
2013-07-26 00:41:00,83.8,67.0,29.88,South,169,4.0,9.0,58,0.00,,,0.00,weatherlink.com 1.10,2013-07-26 05:41:00,
2013-07-26 00:57:00,83.8,69.0,29.88,South,178,4.0,14.0,61,0.00,,,0.00,weatherlink.com 1.10,2013-07-26 05:57:00,
2013-07-26 01:11:00,83.6,69.0,29.88,South,184,6.0,12.0,62,0.00,,,0.00,weatherlink.com 1.10,2013-07-26 06:11:00,
2013-07-26 01:26:00,83.3,70.0,29.87,SSW,197,7.0,12.0,64,0.00,,,0.00,weatherlink.com 1.10,2013-07-26 06:26:00,
2013-07-26 01:41:00,82.9,70.0,29.87,South,184,3.0,10.0,65,0.00,,,0.00,weatherlink.com 1.10,2013-07-26 06:41:00,
2013-07-26 01:56:00,82.5,70.0,29.87,SSW,201,10.0,13.0,65,0.00,,,0.00,weatherlink.com 1.10,2013-07-26 06:56:00,
2013-07-26 02:11:00,82.2,70.0,29.87,SSW,195,10.0,12.0,66,0.00,,,0.00,weatherlink.com 1.10,2013-07-26 07:11:00,
2013-07-26 02:26:00,81.9,69.0,29.87,South,180,5.0,14.0,66,0.00,,,0.00,weatherlink.com 1.10,2013-07-26 07:26:00,
2013-07-26 02:41:00,81.5,70.0,29.87,South,188,4.0,9.0,68,0.00,,,0.00,weatherlink.com 1.10,2013-07-26 07:41:00,
2013-07-26 02:57:00,81.0,70.0,29.86,SSW,192,7.0,8.0,69,0.00,,,0.00,weatherlink.com 1.10,2013-07-26 07:57:00,
2013-07-26 03:11:00,80.7,69.0,29.86,South,189,7.0,11.0,68,0.00,,,0.00,weatherlink.com 1.10,2013-07-26 08:11:00,
2013-07-26 03:26:00,80.3,69.0,29.86,South,187,7.0,11.0,68,0.00,,,0.00,weatherlink.com 1.10,2013-07-26 08:26:00,
2013-07-26 03:41:00,79.8,69.0,29.86,SSW,192,6.0,11.0,69,0.00,,,0.00,weatherlink.com 1.10,2013-07-26 08:41:00,
2013-07-26 03:57:00,79.5,68.0,29.86,South,186,10.0,12.0,69,0.00,,,0.00,weatherlink.com 1.10,2013-07-26 08:57:00,
2013-07-26 04:12:00,79.2,69.0,29.86,SSW,197,6.0,13.0,70,0.00,,,0.00,weatherlink.com 1.10,2013-07-26 09:12:00,
2013-07-26 04:26:00,78.9,69.0,29.86,South,178,6.0,10.0,71,0.00,,,0.00,weatherlink.com 1.10,2013-07-26 09:26:00,
2013-07-26 04:41:00,78.9,68.0,29.86,SSW,200,5.0,9.0,70,0.00,,,0.00,weatherlink.com 1.10,2013-07-26 09:41:00,
2013-07-26 04:57:00,78.8,67.0,29.86,SSW,205,2.0,11.0,68,0.00,,,0.00,weatherlink.com 1.10,2013-07-26 09:57:00,
2013-07-26 05:12:00,78.7,67.0,29.86,South,186,3.0,9.0,68,0.00,,,0.00,weatherlink.com 1.10,2013-07-26 10:12:00,
2013-07-26 05:27:00,78.4,67.0,29.86,SSW,192,1.0,7.0,68,0.00,,,0.00,weatherlink.com 1.10,2013-07-26 10:27:00,
2013-07-26 05:57:00,77.8,68.0,29.86,SSW,192,1.0,6.0,71,0.00,,,0.00,weatherlink.com 1.10,2013-07-26 10:57:00,
2013-07-26 06:12:00,77.7,68.0,29.87,SSW,192,3.0,7.0,72,0.00,,,0.00,weatherlink.com 1.10,2013-07-26 11:12:00,
2013-07-26 06:27:00,77.6,68.0,29.87,SSW,192,4.0,5.0,73,0.00,,,0.00,weatherlink.com 1.10,2013-07-26 11:27:00,
2013-07-26 06:42:00,77.5,68.0,29.87,SSW,192,2.0,7.0,73,0.00,,,0.00,weatherlink.com 1.10,2013-07-26 11:42:00,
2013-07-26 06:57:00,77.3,68.0,29.88,SSW,192,0.0,6.0,73,0.00,,,0.00,weatherlink.com 1.10,2013-07-26 11:57:00,
2013-07-26 07:12:00,77.2,69.0,29.88,SSW,192,1.0,5.0,75,0.00,,,0.00,weatherlink.com 1.10,2013-07-26 12:12:00,
2013-07-26 07:42:00,77.4,69.0,29.88,SSW,192,0.0,1.0,76,0.00,,,0.00,weatherlink.com 1.10,2013-07-26 12:42:00,
2013-07-26 07:58:00,78.1,70.0,29.88,SSW,192,5.0,7.0,76,0.00,,,0.00,weatherlink.com 1.10,2013-07-26 12:58:00,
2013-07-26 08:12:00,78.7,70.0,29.88,South,190,5.0,8.0,75,0.00,,,0.00,weatherlink.com 1.10,2013-07-26 13:12:00,
2013-07-26 08:28:00,79.6,70.0,29.89,South,190,2.0,6.0,73,0.00,,,0.00,weatherlink.com 1.10,2013-07-26 13:28:00,
2013-07-26 08:58:00,81.3,69.0,29.89,South,191,1.0,7.0,67,0.00,,,0.00,weatherlink.com 1.10,2013-07-26 13:58:00,
2013-07-26 09:13:00,82.4,69.0,29.89,SSW,192,2.0,6.0,63,0.00,,,0.00,weatherlink.com 1.10,2013-07-26 14:13:00,
2013-07-26 09:28:00,84.2,68.0,29.89,SSW,202,3.0,7.0,59,0.00,,,0.00,weatherlink.com 1.10,2013-07-26 14:28:00,
2013-07-26 09:42:00,86.1,68.0,29.89,SSW,213,5.0,9.0,55,0.00,,,0.00,weatherlink.com 1.10,2013-07-26 14:42:00,
2013-07-26 09:58:00,86.3,68.0,29.89,South,183,4.0,11.0,54,0.00,,,0.00,weatherlink.com 1.10,2013-07-26 14:58:00,
2013-07-26 10:13:00,86.7,68.0,29.88,SSW,196,6.0,9.0,53,0.00,,,0.00,weatherlink.com 1.10,2013-07-26 15:13:00,
2013-07-26 10:28:00,88.1,67.0,29.88,SSW,210,3.0,8.0,50,0.00,,,0.00,weatherlink.com 1.10,2013-07-26 15:28:00,
2013-07-26 10:43:00,89.4,67.0,29.88,South,184,4.0,9.0,48,0.00,,,0.00,weatherlink.com 1.10,2013-07-26 15:43:00,
2013-07-26 10:58:00,90.3,67.0,29.88,SSW,209,7.0,9.0,47,0.00,,,0.00,weatherlink.com 1.10,2013-07-26 15:58:00,
2013-07-26 11:13:00,91.7,67.0,29.87,SSW,194,5.0,10.0,45,0.00,,,0.00,weatherlink.com 1.10,2013-07-26 16:13:00,
2013-07-26 11:28:00,92.1,68.0,29.88,South,183,8.0,13.0,45,0.00,,,0.00,weatherlink.com 1.10,2013-07-26 16:28:00,
2013-07-26 11:43:00,92.6,68.0,29.87,SSW,210,5.0,9.0,45,0.00,,,0.00,weatherlink.com 1.10,2013-07-26 16:43:00,
2013-07-26 12:28:00,95.2,69.0,29.86,South,177,5.0,12.0,42,0.00,,,0.00,weatherlink.com 1.10,2013-07-26 17:28:00,
2013-07-26 12:43:00,95.0,69.0,29.86,SSW,192,4.0,9.0,43,0.00,,,0.00,weatherlink.com 1.10,2013-07-26 17:43:00,
2013-07-26 12:58:00,97.1,69.0,29.85,SSW,209,2.0,11.0,40,0.00,,,0.00,weatherlink.com 1.10,2013-07-26 17:58:00,
2013-07-26 13:29:00,97.6,69.0,29.83,SW,226,5.0,7.0,39,0.00,,,0.00,weatherlink.com 1.10,2013-07-26 18:29:00,
2013-07-26 13:43:00,97.8,67.0,29.82,SSW,205,0.0,7.0,37,0.00,,,0.00,weatherlink.com 1.10,2013-07-26 18:43:00,
2013-07-26 14:13:00,98.7,67.0,29.81,West,260,0.0,6.0,35,0.00,,,0.00,weatherlink.com 1.10,2013-07-26 19:13:00,
2013-07-26 14:28:00,100.0,65.0,29.81,South,182,5.0,9.0,32,0.00,,,0.00,weatherlink.com 1.10,2013-07-26 19:28:00,
2013-07-26 14:43:00,99.6,66.0,29.80,SSW,194,0.0,6.0,33,0.00,,,0.00,weatherlink.com 1.10,2013-07-26 19:43:00,
2013-07-26 14:59:00,99.2,65.0,29.80,WSW,238,2.0,4.0,33,0.00,,,0.00,weatherlink.com 1.10,2013-07-26 19:59:00,
2013-07-26 15:14:00,99.3,67.0,29.80,NNW,332,0.0,9.0,35,0.00,,,0.00,weatherlink.com 1.10,2013-07-26 20:14:00,
2013-07-26 15:29:00,100.4,66.0,29.79,SSW,204,2.0,9.0,33,0.00,,,0.00,weatherlink.com 1.10,2013-07-26 20:29:00,
2013-07-26 15:44:00,99.2,67.0,29.78,SSE,164,1.0,13.0,35,0.00,,,0.00,weatherlink.com 1.10,2013-07-26 20:44:00,
2013-07-26 15:59:00,98.2,67.0,29.78,ESE,113,0.0,7.0,36,0.00,,,0.00,weatherlink.com 1.10,2013-07-26 20:59:00,
2013-07-26 16:14:00,98.1,68.0,29.77,ESE,119,2.0,5.0,37,0.00,,,0.00,weatherlink.com 1.10,2013-07-26 21:14:00,
2013-07-26 16:29:00,98.3,67.0,29.77,ESE,111,2.0,4.0,36,0.00,,,0.00,weatherlink.com 1.10,2013-07-26 21:29:00,
2013-07-26 16:44:00,99.3,67.0,29.76,SSE,166,0.0,7.0,35,0.00,,,0.00,weatherlink.com 1.10,2013-07-26 21:44:00,
2013-07-26 16:59:00,101.8,66.0,29.76,SW,217,2.0,4.0,31,0.00,,,0.00,weatherlink.com 1.10,2013-07-26 21:59:00,
2013-07-26 17:14:00,100.9,67.0,29.75,SSE,159,6.0,10.0,33,0.00,,,0.00,weatherlink.com 1.10,2013-07-26 22:14:00,
2013-07-26 17:29:00,99.8,67.0,29.75,SE,137,4.0,14.0,34,0.00,,,0.00,weatherlink.com 1.10,2013-07-26 22:29:00,
2013-07-26 17:45:00,99.8,67.0,29.74,SE,131,8.0,10.0,34,0.00,,,0.00,weatherlink.com 1.10,2013-07-26 22:45:00,
2013-07-26 18:00:00,100.3,66.0,29.73,SSE,166,3.0,9.0,33,0.00,,,0.00,weatherlink.com 1.10,2013-07-26 23:00:00,
2013-07-26 18:29:00,97.7,65.0,29.73,South,169,6.0,10.0,34,0.00,,,0.00,weatherlink.com 1.10,2013-07-26 23:29:00,
2013-07-26 18:44:00,97.4,66.0,29.74,SSE,154,2.0,6.0,35,0.00,,,0.00,weatherlink.com 1.10,2013-07-26 23:44:00,
2013-07-26 18:59:00,97.3,65.0,29.73,SSE,153,2.0,7.0,35,0.00,,,0.00,weatherlink.com 1.10,2013-07-26 23:59:00,
2013-07-26 19:14:00,97.2,65.0,29.72,SSE,165,0.0,8.0,35,0.00,,,0.00,weatherlink.com 1.10,2013-07-27 00:14:00,
2013-07-26 19:29:00,96.9,65.0,29.73,SSE,158,1.0,5.0,35,0.00,,,0.00,weatherlink.com 1.10,2013-07-27 00:29:00,
2013-07-26 19:45:00,96.5,65.0,29.73,SSE,160,2.0,6.0,35,0.00,,,0.00,weatherlink.com 1.10,2013-07-27 00:45:00,
2013-07-26 20:00:00,96.2,65.0,29.74,SSE,160,2.0,5.0,36,0.00,,,0.00,weatherlink.com 1.10,2013-07-27 01:00:00,
2013-07-26 20:15:00,95.6,65.0,29.73,SSE,160,3.0,4.0,37,0.00,,,0.00,weatherlink.com 1.10,2013-07-27 01:15:00,
2013-07-26 20:30:00,94.8,66.0,29.74,South,184,2.0,9.0,39,0.00,,,0.00,weatherlink.com 1.10,2013-07-27 01:30:00,
2013-07-26 20:45:00,93.8,67.0,29.74,South,173,4.0,10.0,42,0.00,,,0.00,weatherlink.com 1.10,2013-07-27 01:45:00,
2013-07-26 21:00:00,93.1,68.0,29.75,South,180,3.0,6.0,44,0.00,,,0.00,weatherlink.com 1.10,2013-07-27 02:00:00,
2013-07-26 21:15:00,92.5,68.0,29.75,South,182,3.0,7.0,45,0.00,,,0.00,weatherlink.com 1.10,2013-07-27 02:15:00,
2013-07-26 21:30:00,92.1,68.0,29.77,South,182,2.0,2.0,45,0.00,,,0.00,weatherlink.com 1.10,2013-07-27 02:30:00,
2013-07-26 21:45:00,91.8,68.0,29.79,South,180,3.0,5.0,46,0.00,,,0.00,weatherlink.com 1.10,2013-07-27 02:45:00,
2013-07-26 22:00:00,91.9,68.0,29.80,South,180,0.0,3.0,46,0.00,,,0.00,weatherlink.com 1.10,2013-07-27 03:00:00,
2013-07-26 22:15:00,89.9,69.0,29.80,North,5,4.0,8.0,51,0.00,,,0.00,weatherlink.com 1.10,2013-07-27 03:15:00,
2013-07-26 22:30:00,88.3,69.0,29.82,NNE,26,2.0,11.0,53,0.00,,,0.00,weatherlink.com 1.10,2013-07-27 03:30:00,
2013-07-26 22:45:00,87.5,69.0,29.83,NNE,30,5.0,12.0,55,0.00,,,0.00,weatherlink.com 1.10,2013-07-27 03:45:00,
2013-07-26 23:00:00,86.9,69.0,29.83,NNE,31,4.0,12.0,56,0.00,,,0.00,weatherlink.com 1.10,2013-07-27 04:00:00,
2013-07-26 23:15:00,86.2,70.0,29.83,NNE,14,7.0,10.0,58,0.00,,,0.00,weatherlink.com 1.10,2013-07-27 04:15:00,
2013-07-26 23:30:00,85.9,70.0,29.83,NE,39,3.0,8.0,59,0.00,,,0.00,weatherlink.com 1.10,2013-07-27 04:30:00,
2013-07-26 23:45:00,85.5,70.0,29.83,NNE,33,3.0,8.0,60,0.00,,,0.00,weatherlink.com 1.10,2013-07-27 04:45:00,